AirNav   Duncan Aviation - Near you to keep you flying
 
 436 users online  

KTOA Zamperini Field Airport
Torrance, California, USA

GOING TO TORRANCE?


FAA INFORMATION EFFECTIVE 09 SEPTEMBER 2021

Location

FAA Identifier: TOA
Lat/Long: 33-48-12.1783N 118-20-22.5875W
33-48.202972N 118-20.376458W
33.8033829,-118.3396076
(estimated)
Elevation: 103.2 ft. / 31.5 m (surveyed)
Variation: 14E (1970)
From city: 3 miles SW of TORRANCE, CA
Time zone: UTC -7 (UTC -8 during Standard Time)
Zip code: 90505

Airport Operations

Airport use: Open to the public
Control tower: yes
ARTCC: LOS ANGELES CENTER
FSS: HAWTHORNE FLIGHT SERVICE STATION
NOTAMs facility: TOA (NOTAM-D service available)
Attendance: 0600-2200
Wind indicator: lighted
Segmented circle: yes
Lights: WHEN ATCT CLSD ACTVT MALSR RY 29R - CTAF; MIRL RY 11L/29R SS-SR; MIRL RY 11R/29L 0600-2000; ACTVT HELIPAD PERIMETER LGTS - 24 HRS - CTAF.
Beacon: white-green (lighted land airport)
Operates sunset to sunrise.

Airport Communications

CTAF: 124.0
UNICOM: 122.95
ATIS: 125.6
TORRANCE GROUND: 120.9 [0700-2000]
TORRANCE TOWER: 124.0 ;SOUTH 133.075 ;NORTH 257.8 [0700-2000]
SOCAL APPROACH: 124.3 ;RWY 11L, 11R 127.2 ;RWY 29L/R
SOCAL DEPARTURE: 124.3 ;RWY 29L, 29R 127.2 ;RWY 11L/R
HAWWC DP: 127.2 ;RWY 11L/R 134.9 ;RWY 29L/R
IC: 257.8
WX AWOS-3PT at CPM (7 nm NE): 127.150 (310-631-4958)
WX ASOS at HHR (7 nm N): PHONE 310-973-8930
WX ASOS at LAX (9 nm N): PHONE 310-568-1486
WX ASOS at LGB (9 nm E): PHONE 562-424-0572
WX ASOS at SMO (14 nm NW): PHONE 310-392-6453
WX ASOS at FUL (18 nm E): PHONE 714-870-1372
  • TWR SECTORIZATION IS BASED ON CENTER OF ARPT PARALLEL TO RY 11/29 CNTRLN.

Nearby radio navigation aids

VOR radial/distance  VOR name  Freq  Var
LAXr134/9.0LOS ANGELES VORTAC113.6015E
SMOr140/13.7SANTA MONICA VOR/DME110.8015E
SLIr260/14.3SEAL BEACH VORTAC115.7015E
SXCr354/26.0SANTA CATALINA VORTAC111.4015E
VNYr148/26.3VAN NUYS VOR/DME113.1015E
ELBr270/31.3EL TORO VOR/DME117.2014E
POMr224/32.1POMONA VORTAC110.4015E
VTUr103/40.0VENTURA VOR/DME108.2015E

Airport Services

Fuel available: 100LL
100LL:FUEL AVBL 0700-2000.
Parking: tiedowns
Airframe service: MAJOR
Powerplant service: MAJOR
Bottled oxygen: HIGH/LOW
Bulk oxygen: HIGH/LOW

Runway Information

Runway 11L/29R

Dimensions: 5001 x 150 ft. / 1524 x 46 m
Surface: asphalt/concrete, in fair condition
Weight bearing capacity: 
Single wheel: 30.0
Double wheel: 50.0
Double tandem: 90.0
Runway edge lights: medium intensity
RUNWAY 11L  RUNWAY 29R
Latitude: 33-48.483555N33-47.970732N
Longitude: 118-20.740110W118-19.966660W
Elevation: 83.0 ft.96.8 ft.
Traffic pattern: leftright
Runway heading: 114 magnetic, 128 true294 magnetic, 308 true
Displaced threshold: 541 ft.540 ft.
Markings: precision, in fair conditionprecision, in fair condition
Visual slope indicator: 2-box VASI on left (3.50 degrees glide path)4-box VASI on left (4.00 degrees glide path)
Approach lights: MALSR: 1,400 foot medium intensity approach lighting system with runway alignment indicator lights
Runway end identifier lights: nono
Touchdown point: yes, no lightsyes, no lights
Instrument approach: ILS/DME
Obstructions: 35 ft. trees, 690 ft. from runway, 14:1 slope to clear
RWY 11L APCH RATIO TO DSPLCD THR 35:1;
22 ft. bldg, 475 ft. from runway, 530 ft. left of centerline, 12:1 slope to clear
+9 FT MALSR BLDG 190 FT FROM E OR 440 FT RIGHT.

Runway 11R/29L

Dimensions: 3000 x 75 ft. / 914 x 23 m
Surface: asphalt/concrete, in fair condition
Weight bearing capacity: 
Single wheel: 28.0
Runway edge lights: medium intensity
RUNWAY 11R  RUNWAY 29L
Latitude: 33-48.316468N33-48.008890N
Longitude: 118-20.646902W118-20.182938W
Elevation: 96.3 ft.103.2 ft.
Traffic pattern: rightleft
Runway heading: 114 magnetic, 128 true294 magnetic, 308 true
Markings: basic, in fair conditionbasic, in fair condition
Visual slope indicator: 2-box VASI on left (4.00 degrees glide path)
Runway end identifier lights: yes
Touchdown point: yes, no lightsyes, no lights
Obstructions: none26 ft. bldg, lighted, 1400 ft. from runway, 100 ft. left of centerline, 46:1 slope to clear

Helipad H1

Dimensions: 110 x 110 ft. / 34 x 34 m
Surface: asphalt, in good condition
FATO AND TLOF PAVED.
Runway edge lights: PERI
YELLOW PERIMETER LGTS.
Latitude: 33-48.556333N
Longitude: 118-20.739667W
Elevation: 79.0 ft.
Traffic pattern: leftleft

Airport Ownership and Management from official FAA records

Ownership: Publicly-owned
Owner: CITY OF TORRANCE
3031 TORRANCE BLVD
TORRANCE, CA 90503
Phone 310-784-7900
Manager: RAFAEL HERRERA
CITY OF TORRANCE, 3301 AIRPORT DRIVE
TORRANCE, CA 90505
Phone 310-784-7914

Airport Operational Statistics

Aircraft based on the field: 279
Single engine airplanes: 247
Multi engine airplanes: 23
Jet airplanes: 1
Helicopters: 5
Gliders airplanes: 3
    
Aircraft operations: avg 326/day *
53% transient general aviation
46% local general aviation
<1% military
<1% air taxi
<1% commercial
* for 12-month period ending 31 January 2016

Additional Remarks

NUMEROUS FLOCKS OF BIRDS ON AND INVOF ARPT.
FOR CD WHEN ATCT CLSD CTC SOCAL APCH AT 800-448-3724.
TGL-STOP/GO LNDG & LOW APCH OPNS & TAXI-BACK OPNS LTD TO 0800-2000 (TAXI-BACK UNTIL 2200) WKDAYS & 1000-1700 SAT. NO TGL-STOP/GO LNDG & LOW APCH OPNS & TAXI-BACK OPNS ON SUN & HOLS. ARPT CLSD TO DEP 2200-0700 WKDAYS & 2200-0800 WKENDS & HOLS.
NO MULTI-ENGINE SIMULATED ENGINE-OUT PROCS AUTH IN TFC PAT. RY 11R/29L CLSD 2000-0700.
NOISE SENSITIVE AREA ALL QUADS. FOR NOISE ABATEMENT PROCS INFO CTC ARPT NOISE ABATEMENT (310) 784-7950. CERTAIN TBJT ACFT PERMLY EXCLDD.
TWYS CROSS APCH ZONE BOTH ENDS RWY 11R/29L OBSERVE TWY HOLD LINES.
BE ALERT TO FARM EQUIPMENT OPERG NEAR ALL RWYS AND TWYS.

Instrument Procedures

NOTE: All procedures below are presented as PDF files. If you need a reader for these files, you should download the free Adobe Reader.

NOT FOR NAVIGATION. Please procure official charts for flight.
FAA instrument procedures published for use from 09 September 2021 at 0901Z to 07 October 2021 at 0900Z.

 
STARs - Standard Terminal Arrivals
KAYOH SEVEN   download (318KB)
 
IAPs - Instrument Approach Procedures
ILS OR LOC RWY 29R   download (353KB)
RNAV (GPS) RWY 11L   download (281KB)
RNAV (GPS) RWY 29R   download (310KB)
VOR RWY 11L   download (281KB)
NOTE: Special Alternate Minimums apply   download (115KB)
 
Departure Procedures
HAWWC THREE (RNAV)   download (170KB)
NOTE: Special Take-Off Minimums/Departure Procedures apply   download (350KB)

Other nearby airports with instrument procedures:

KHHR - Jack Northrop Field/Hawthorne Municipal Airport (7 nm N)
KLAX - Los Angeles International Airport (9 nm N)
KLGB - Long Beach Airport (Daugherty Field) (9 nm E)
KSMO - Santa Monica Municipal Airport (14 nm NW)
KSLI - Los Alamitos Army Airfield (14 nm E)
KFUL - Fullerton Municipal Airport (18 nm E)
 
Loc | Ops | Rwys | IFR | FBO | Links
Com | Nav | Svcs | Stats | Notes
Area around KTOA (Zamperini Field Airport)
 
Road maps at: MapQuest Bing Google
 
Aerial photo
WARNING: Photo may not be current or correct
Aerial photo of KTOA (Zamperini Field Airport)
Photo by www.focalflight.com
Photo taken 03-Jun-2020
looking west-northwest.

Do you have a better or more recent aerial photo of Zamperini Field Airport that you would like to share? If so, please send us your photo.

 
Sectional chart

 
Airport diagram
CAUTION: Diagram may not be current
Diagram of KTOA (Zamperini Field Airport)
Download PDF
of official airport diagram from the FAA

 
Airport distance calculator
Flying to Zamperini Field Airport? Find the distance to fly.

From to KTOA

Sunrise and sunset
Times for 20-Sep-2021
 Local
(UTC-7)
 Zulu
(UTC)
Morning civil twilight06:1613:16
Sunrise06:4113:41
Sunset18:5201:52
Evening civil twilight19:1702:17

Current date and time
Zulu (UTC)  20-Sep-2021 10:22:44
Local (UTC-7)  20-Sep-2021 03:22:44
 
METAR
KTOA 
2nm SE 
200250Z 28006KT 10SM SKC 18/15 A2989 RMK LAST
KHHR 
7nm N 
200953Z AUTO 00000KT 10SM CLR 17/14 A2989 RMK AO2 SLP120 T01720139
KLAX 
8nm N 
200953Z 04004KT 10SM FEW010 18/14 A2989 RMK AO2 SLP118 T01780144
KLGB 
9nm E 
200953Z AUTO 00000KT 8SM SCT007 17/16 A2988 RMK AO2 SLP119 T01720156
KSMO 
14nm NW 
200951Z AUTO 01003KT 10SM CLR 16/13 A2989 RMK AO2 SLP120 T01610133
KSLI 
15nm E 
200958Z AUTO 00000KT 3SM BR CLR 15/15 A2988 RMK AO2 SLP121 T01460146
KCQT 
16nm N 
200952Z AUTO 00000KT 10SM CLR 17/14 A2988 RMK AO2 SLP118 T01670144
KFUL 
18nm E 
200953Z AUTO 00000KT 9SM CLR 17/15 A2988 RMK AO2 SLP116 T01720150
TAF
KLAX 
8nm N 
200524Z 2006/2112 VRB03KT P6SM SKC FM201900 26012KT P6SM SKC FM210400 VRB03KT P6SM SKC
KLGB 
9nm E 
200524Z 2006/2106 VRB03KT P6SM SKC FM202000 20008KT P6SM SKC FM210300 VRB03KT P6SM SKC
KSMO 
14nm NW 
200524Z 2006/2106 VRB03KT P6SM SKC FM202000 23010KT P6SM SKC FM210300 VRB03KT P6SM SKC
KSLI 
15nm E 
200501Z 2005/2111 VRB06KT 9999 SKC QNH2985INS TEMPO 2010/2015 8000 BR BKN010 BECMG 2019/2020 20007KT 9999 SKC QNH2986INS TX27/2023Z TN16/2014Z
NOTAMs
Click for the latest NOTAMs
NOTAMs are issued by the DoD/FAA and will open in a separate window not controlled by AirNav.

 

 
 

FBO, Fuel Providers, and Aircraft Ground Support

  
 Business Name 
 
 Contact 
 
 Services / Description 
 
Fuel Prices
 
Comments
  
Great American Aviation UNICOM 122.95
310-534-2333
[web site]
[email]
Aviation fuel, Hangar leasing / sales
More info and photos of Great American Aviation
EPIC
100LL
SS $5.34 
GUARANTEED
 
   write
South Bay Aviation 310-791-5454
[web site]
Aviation fuel, Flight training, Aircraft rental, Pilot supplies, Flying club
 
Cessna Pilot Center  
 
More info about South Bay Aviation
EPIC
100LL
FS $5.55 
 Updated 08-Sep-2021
 
   write
Torrance Flite Park, LLC 310-373-2222
no information available

If you are affiliated with Torrance Flite Park, LLC and would like to show here your services, contact info, web link, logo, and more, click here
100LL
FS $5.55 
 Updated 17-Sep-2021
 
   write
FS=Full service
SS=Self service
Update Fuel Prices
 

Aviation Businesses, Services, and Facilities

  
 Business Name 
 
 Contact 
 
 Services / Description 
 
Distance
 
Comments
  
Leading Edge Avionics
Leading Edge Avionics
toll-free 855-955-6151
[web site]
[email]

Like us on facebook See us on instagram Follow us on twitter
Leading Edge Avionics is a FAA Certified Part 145 Repair Station (137R236D) that provides outstanding avionics repair and installation services for all General Aviation aircraft from business jets to helicopters to single engine airplanes. We are committed to delivering our customers with services that ensure uncompromised safety and the highest quality of workmanship and reliability, while exceeding our clients' expectations on all levels. 24/7 AOG Service is also available at all Southern California airports, so call us at (855) 955-6151 and let us exceed all your service expectations!
More info and photos of Leading Edge Avionics
located at KSNA  
   write
Rolling Hills Aviation 310-375-0061
no information available

If you are affiliated with Rolling Hills Aviation and would like to show here your services, contact info, web link, logo, and more, click here
on airport  
   write
 

Would you like to see your business listed on this page?

 If your business provides an interesting product or service to pilots, flight crews, aircraft, or users of the Zamperini Field Airport, you should consider listing it here.  To start the listing process, click on the button below
 
Add a business
 

Other Pages about Zamperini Field Airport

www.ci.torrance.ca.us/...
www.torrance.com/torranceairport
members.aol.com/taanews
 
Update a link
 
Copyright © AirNav, LLC. All rights reserved. Privacy Policy  Contact